Location: Bakhuizen
(52.8696°N, 5.4575°E)
Time: 23:08:40
(UTC+00:00)

SJ 16-02 - Pass Details

Date: 11 May 2021
Orbit: 606 x 616 km, 75.0° (Epoch: 24 June)

Event Time Altitude Azimuth Distance (km) Brightness Sun altitude
Exits shadow 21:19:56 - 195° (SSW) 2,037 3.6 -13.3°
Reaches altitude 10° 21:20:05 10° 195° (SSW) 1,975 3.6 -13.3°
Maximum altitude 21:24:29 74° 112° (ESE) 647 1.3 -13.6°
Drops below altitude 10° 21:28:55 10° 27° (NNE) 1,991 4.4 -14.0°
Sets 21:31:11 0° 26° (NNE) 2,900 5.3 -14.2°
